Liverpool, United Kingdom

9:41 AM GMT on February 21, 2018 (GMT +0000)
Liverpool

Weather History for EGGP - December, 2013

Change the Weather History Date:

Friday, December 6, 2013

  Actual Average Record
Temperature  
Mean Temperature 42 °F -  
Max Temperature 46 °F 44 °F 57 °F (2015)
Min Temperature 39 °F 36 °F 23 °F (2010)
Degree Days  
Heating Degree Days 22    
Moisture  
Dew Point 38 °F    
Average Humidity 82    
Maximum Humidity 100    
Minimum Humidity 66    
Precipitation  
Precipitation 0.00 in - - ()
Sea Level Pressure  
Sea Level Pressure 30.30 in    
Wind  
Wind Speed 11 mph ()    
Max Wind Speed 21 mph    
Max Gust Speed 31 mph    
Visibility 5.0 miles    
Events Rain    
Averages and records for this station are not official NWS values.
T = Trace of Precipitation, MM = Missing Value Source: Averaged Metar Reports

Daily Weather History Graph

Daily Weather History Graph

Search for Another Location

Airport or City:

Trip Planner

Search our weather history database for the weather conditions in past years. The results will help you decide how hot, cold, wet, or windy it might be!

Date:

Astronomy

Dec. 06, 2013 Rise Set
Actual Time 8:10 AM GMT 3:54 PM GMT
Civil Twilight 7:28 AM GMT 4:36 PM GMT
Nautical Twilight 6:43 AM GMT 5:20 PM GMT
Astronomical Twilight 6:01 AM GMT 6:03 PM GMT
Moon 10:46 AM GMT (12/6) 8:30 PM GMT (12/6)
Length of Visible Light 9h 07m
Length of Day
7h 43m
Waxing Crescent, 17% of the Moon is Illuminated
Dec 6
Waxing Crescent
Dec 9
First Quarter
Dec 17
Full
Dec 25
Last Quarter
Jan 1
New

Hourly Weather History & Observations

Time (GMT) Temp. Windchill Dew Point Humidity Pressure Visibility Wind Dir Wind Speed Gust Speed Precip Events Conditions
12:20 AM 41.0 °F 33.5 °F 33.8 °F 76% 30.24 in 6.2 mi NNW 13.8 mph - N/A   Scattered Clouds
12:50 AM 41.0 °F 34.3 °F 35.6 °F 81% 30.24 in 6.2 mi NW 11.5 mph - N/A Rain Light Rain Showers
1:20 AM 41.0 °F 33.5 °F 35.6 °F 81% 30.24 in 6.2 mi NW 13.8 mph - N/A Rain Light Rain Showers
1:50 AM 42.8 °F 34.8 °F 32.0 °F 66% 30.24 in 6.2 mi NW 17.3 mph - N/A Rain Light Rain Showers
2:20 AM 41.0 °F 33.5 °F 35.6 °F 81% 30.27 in 6.2 mi NNW 13.8 mph 27.6 mph N/A   Scattered Clouds
2:50 AM 42.8 °F 36.2 °F 33.8 °F 70% 30.24 in 6.2 mi NW 12.7 mph 24.2 mph N/A   Scattered Clouds
3:20 AM 42.8 °F 35.1 °F 32.0 °F 66% 30.27 in 6.2 mi NW 16.1 mph 31.1 mph N/A   Scattered Clouds
3:50 AM 41.0 °F 33.1 °F 35.6 °F 81% 30.27 in 6.2 mi NNW 15.0 mph - N/A   Scattered Clouds
4:20 AM 41.0 °F 34.3 °F 35.6 °F 81% 30.27 in 6.2 mi NW 11.5 mph - N/A   Mostly Cloudy
4:50 AM 39.2 °F 31.6 °F 35.6 °F 87% 30.27 in 6.2 mi NW 12.7 mph - N/A   Scattered Clouds
5:20 AM 42.8 °F 37.0 °F 33.8 °F 70% 30.27 in 6.2 mi NW 10.4 mph - N/A   Scattered Clouds
5:50 AM 42.8 °F 35.1 °F 33.8 °F 70% 30.27 in 6.2 mi NW 16.1 mph - N/A   Scattered Clouds
6:20 AM 42.8 °F 34.0 °F 32.0 °F 66% 30.30 in 6.2 mi NW 20.7 mph - N/A   Scattered Clouds
6:50 AM 42.8 °F 35.8 °F 35.6 °F 76% 30.30 in 6.2 mi NNW 13.8 mph - N/A   Partly Cloudy
7:20 AM 41.0 °F 34.7 °F 35.6 °F 81% 30.30 in 6.2 mi NNW 10.4 mph - N/A   Partly Cloudy
7:50 AM 42.8 °F 37.5 °F 35.6 °F 76% 30.30 in 6.2 mi NNW 9.2 mph - N/A   Scattered Clouds
8:20 AM 42.8 °F 35.4 °F 33.8 °F 70% 30.33 in 6.2 mi NW 15.0 mph - N/A   Scattered Clouds
8:50 AM 42.8 °F 34.8 °F 33.8 °F 70% 30.33 in 6.2 mi WNW 17.3 mph - N/A   Scattered Clouds
9:20 AM 44.6 °F 37.2 °F 35.6 °F 71% 30.33 in 6.2 mi WNW 17.3 mph - N/A   Scattered Clouds
9:50 AM 44.6 °F 37.2 °F 35.6 °F 71% 30.33 in 6.2 mi WNW 17.3 mph - N/A   Scattered Clouds
10:20 AM 44.6 °F 37.4 °F 35.6 °F 71% 30.33 in 6.2 mi WNW 16.1 mph - N/A   Scattered Clouds
10:50 AM 44.6 °F 37.2 °F 35.6 °F 71% 30.33 in 6.2 mi WNW 17.3 mph - N/A   Scattered Clouds
11:20 AM 44.6 °F 37.4 °F 35.6 °F 71% 30.33 in 6.2 mi WNW 16.1 mph - N/A   Scattered Clouds
11:50 AM 46.4 °F 40.7 °F 37.4 °F 71% 30.33 in 6.2 mi WNW 12.7 mph - N/A   Scattered Clouds
12:20 PM 46.4 °F 40.1 °F 37.4 °F 71% 30.33 in 6.2 mi WNW 15.0 mph - N/A   Scattered Clouds
12:50 PM 46.4 °F 40.4 °F 37.4 °F 71% 30.33 in 6.2 mi WNW 13.8 mph - N/A   Scattered Clouds
1:20 PM 46.4 °F 40.1 °F 39.2 °F 76% 30.33 in 6.2 mi WNW 15.0 mph - N/A   Scattered Clouds
1:50 PM 46.4 °F 40.4 °F 37.4 °F 71% 30.33 in 6.2 mi WNW 13.8 mph - N/A   Mostly Cloudy
2:20 PM 44.6 °F 38.4 °F 39.2 °F 81% 30.33 in 5.6 mi NW 12.7 mph - N/A Rain Light Rain
2:50 PM 44.6 °F 39.7 °F 41.0 °F 87% 30.33 in 4.3 mi WNW 9.2 mph - N/A Rain Light Rain
3:20 PM 42.8 °F 40.1 °F 41.0 °F 93% 30.33 in 2.5 mi WNW 4.6 mph - N/A Rain Light Rain
3:50 PM 42.8 °F 41.1 °F 41.0 °F 93% 30.33 in 2.5 mi NNW 3.5 mph - N/A Rain Light Rain
4:20 PM 42.8 °F - 41.0 °F 93% 30.33 in 2.2 mi Variable 1.2 mph - N/A Rain Light Rain
4:50 PM 42.8 °F 41.1 °F 41.0 °F 93% 30.33 in 2.2 mi Variable 3.5 mph - N/A Rain Light Rain
5:20 PM 42.8 °F 41.1 °F 41.0 °F 93% 30.33 in 2.2 mi East 3.5 mph - N/A Rain Light Rain
5:50 PM 42.8 °F 41.1 °F 41.0 °F 93% 30.33 in 0.7 mi ESE 3.5 mph - N/A Rain Light Rain
6:20 PM 42.8 °F 40.1 °F 41.0 °F 93% 30.33 in 0.5 mi ESE 4.6 mph - N/A Rain Light Rain
6:50 PM 42.8 °F 40.1 °F 41.0 °F 93% 30.33 in 0.4 mi East 4.6 mph - N/A Rain Light Rain
7:20 PM 42.8 °F 41.1 °F 41.0 °F 93% 30.33 in 0.5 mi ESE 3.5 mph - N/A Rain Light Rain
7:50 PM 42.8 °F 41.1 °F 42.8 °F 100% 30.30 in 0.5 mi ESE 3.5 mph - N/A Rain Light Rain
8:20 PM 42.8 °F - 42.8 °F 100% 30.30 in 0.9 mi Variable 2.3 mph - N/A Rain Light Rain
8:50 PM 42.8 °F - 42.8 °F 100% 30.30 in 5.6 mi South 2.3 mph - N/A Rain Light Rain
9:20 PM 44.6 °F 41.4 °F 42.8 °F 93% 30.30 in 5.6 mi WSW 5.8 mph - N/A Rain Light Rain
9:50 PM 46.4 °F 40.7 °F 44.6 °F 93% 30.30 in 6.2 mi West 12.7 mph - N/A   Mostly Cloudy
10:20 PM 46.4 °F 40.7 °F 44.6 °F 93% 30.30 in 6.2 mi West 12.7 mph - N/A   Partly Cloudy
10:50 PM 46.4 °F 41.1 °F 44.6 °F 93% 30.30 in 6.2 mi West 11.5 mph - N/A   Scattered Clouds
11:20 PM 46.4 °F 40.7 °F 44.6 °F 93% 30.30 in 6.2 mi West 12.7 mph - N/A Rain Light Rain
11:50 PM 46.4 °F 40.7 °F 42.8 °F 87% 30.27 in 6.2 mi West 12.7 mph - N/A   Scattered Clouds